Location: Windsor
(43.2292°N, 89.3015°W)
Time: 20:05:24
(UTC+00:00)

YUBILEINY - Visible Passes

Search period start: 27 June 2022 00:00
Search period end: 07 July 2022 00:00
Orbit: 1479 x 1507 km, 82.5° (Epoch: 27 June)

Date Brightness Start Highest point End Pass type
(mag) Time Alt. Az. Time Alt. Az. Time Alt. Az.
27 Jun ? 09:11:27 10° N 09:18:36 27° ENE 09:25:40 10° ESE visible
28 Jun ? 02:12:14 10° W 02:16:32 14° NW 02:20:53 10° NNW visible
28 Jun ? 08:23:24 10° NNE 08:27:54 15° NE 08:32:21 10° E visible
29 Jun ? 09:28:33 10° N 09:36:42 39° ENE 09:44:43 10° SE visible
30 Jun ? 08:39:46 10° NNE 08:46:20 22° ENE 08:52:49 10° ESE visible
01 Jul ? 07:52:28 10° NNE 07:55:29 12° NE 07:58:29 10° ENE visible
01 Jul ? 09:45:55 10° N 09:54:36 58° ENE 10:03:10 10° SSE visible
02 Jul ? 08:56:45 10° N 09:04:32 33° ENE 09:12:12 10° SE visible
03 Jul ? 08:08:12 10° NNE 08:14:02 19° ENE 08:19:47 10° E visible
04 Jul ? 09:14:01 10° N 09:22:31 49° ENE 09:30:53 10° SSE visible
05 Jul ? 08:25:00 10° N 08:32:19 28° ENE 08:39:33 10° ESE visible
06 Jul ? 07:36:47 10° NNE 07:41:40 16° NE 07:46:31 10° E visible
06 Jul ? 09:31:29 10° N 09:40:19 72° E 09:49:00 10° SSE visible
